Voltar ao catálogo

ARIANE 44L+ DEB

AtivoGTO
NORAD 23245·DEBRIS·🇫🇷 France

Lançado Apr 15, 1992 de Guiana Space Centre

Loading…

TLE

EnvelhecendoSource: Space-Track

Época: Sep 14, 2026, 02:48 UTC

1 23245U 92021P   26257.11701890 -.00000119  00000-0  00000-0 0  9991
2 23245   4.0980  11.8490 7007933 109.6961 334.0394  2.25183718117915

Acompanhe ARIANE 44L+ DEB em tempo real com AllMySat

Download on the App Store